FW0299 Weather Reports


time (UTC)temp
F
wind
direction
speed
knots
gust
knots
rain 1hr
in
rain 24hr
in
rain mn
in
humidity
%
barometer
mb
20260504221051 65 304 2.6 7.8 0.00 0.02 0.00 65 1012.3
20260504220558 65 314 2.6 8.7 0.00 0.02 0.00 65 1012.2
20260504215833 64 69 2.6 8.7 0.00 0.02 0.00 64 1012.4
20260504215331 65 28 2.6 7.8 0.00 0.02 0.00 65 1012.5
20260504214829 64 19 3.5 8.7 0.00 0.02 0.00 66 1012.6
20260504214327 64 321 3.5 8.7 0.00 0.02 0.00 63 1012.6
20260504213827 64 53 3.5 8.7 0.00 0.02 0.00 66 1012.6
20260504213327 64 333 3.5 8.7 0.00 0.02 0.00 64 1012.7
20260504213054 64 192 3.5 8.7 0.00 0.02 0.00 64 1012.8
20260504212328 64 36 3.5 8.7 0.00 0.02 0.00 64 1012.7
20260504211827 64 344 3.5 9.6 0.00 0.02 0.00 66 1012.7
20260504211543 64 86 3.5 9.6 0.00 0.02 0.00 70 1012.7
20260504210325 64 14 3.5 10.4 0.00 0.02 0.00 63 1012.8
20260504205824 64 50 3.5 9.6 0.00 0.02 0.00 65 1012.7
20260504205540 64 265 4.3 9.6 0.00 0.02 0.00 66 1013.1
20260504204811 64 229 3.5 9.6 0.00 0.02 0.00 64 1013.2
20260504204306 64 290 2.6 9.6 0.00 0.02 0.00 66 1013.3
20260504203800 64 88 3.5 9.6 0.00 0.02 0.00 65 1013.2
20260504203254 63 234 3.5 9.6 0.00 0.02 0.00 68 1013.2
20260504203019 63 5 3.5 9.6 0.00 0.02 0.00 67 1013.3
20260504202242 63 76 3.5 9.6 0.00 0.02 0.00 65 1013.3
20260504201736 63 57 3.5 7.8 0.00 0.02 0.00 67 1013.4
20260504201453 63 223 3.5 8.7 0.00 0.02 0.00 66 1013.4
20260504200724 62 274 3.5 8.7 0.00 0.02 0.00 66 1013.4
20260504200218 62 79 3.5 9.6 0.00 0.02 0.00 70 1013.4
20260504195712 62 253 4.3 9.6 0.00 0.02 0.00 68 1013.4
20260504195206 62 11 3.5 8.7 0.00 0.02 0.00 68 1013.6
20260504194700 62 27 3.5 8.7 0.00 0.02 0.00 70 1013.6
20260504194154 61 33 3.5 8.7 0.00 0.02 0.00 68 1013.7
20260504193648 62 267 2.6 7.8 0.00 0.02 0.00 68 1013.7
20260504193142 61 25 3.5 8.7 0.00 0.02 0.00 69 1013.7
20260504192636 61 279 3.5 8.7 0.00 0.02 0.00 69 1013.9
20260504192129 61 109 3.5 7.8 0.00 0.02 0.00 69 1014.0
20260504191623 60 100 3.5 8.7 0.00 0.02 0.00 72 1014.0
20260504191118 60 76 3.5 8.7 0.00 0.02 0.00 71 1014.1
20260504190835 60 268 2.6 5.2 0.00 0.02 0.00 72 1014.2
20260504190106 60 48 2.6 7.0 0.00 0.02 0.00 73 1014.3
20260504185600 59 342 3.5 7.8 0.00 0.02 0.00 74 1014.3
20260504185054 59 313 3.5 7.8 0.00 0.02 0.00 74 1014.4
20260504184547 59 170 2.6 7.8 0.00 0.02 0.00 74 1014.5
20260504184042 58 309 2.6 8.7 0.00 0.02 0.00 75 1014.4
20260504183535 58 189 2.6 8.7 0.00 0.02 0.00 75 1014.5
20260504183029 58 21 3.5 8.7 0.00 0.02 0.00 77 1014.5
20260504182524 57 150 3.5 10.4 0.00 0.02 0.00 77 1014.6
20260504181511 56 86 3.5 7.8 0.00 0.02 0.00 78 1014.5
20260504181006 56 17 3.5 7.8 0.00 0.02 0.00 79 1014.5
20260504180500 56 5 3.5 8.7 0.00 0.02 0.00 81 1014.5
20260504175954 55 194 3.5 8.7 0.00 0.02 0.00 81 1014.6
20260504175448 55 125 2.6 7.8 0.00 0.02 0.00 81 1014.5
20260504174944 55 294 3.5 7.8 0.00 0.02 0.00 81 1014.6
20260504174444 55 84 2.6 7.8 0.00 0.02 0.00 82 1014.5
20260504173943 54 107 2.6 7.8 0.00 0.02 0.00 82 1014.4
20260504173442 54 177 2.6 7.8 0.00 0.02 0.00 82 1014.4
20260504172942 54 82 2.6 6.1 0.00 0.02 0.00 82 1014.5
20260504172703 53 92 2.6 7.8 0.00 0.02 0.00 82 1014.4
20260504171942 52 36 2.6 7.8 0.00 0.02 0.00 82 1014.5
20260504171440 52 111 2.6 6.1 0.00 0.02 0.00 80 1014.5
20260504170940 51 161 2.6 6.1 0.00 0.02 0.00 74 1014.4
20260504150935 49 43 1.7 7.0 0.00 0.02 0.00 28 1014.4
20260504150428 49 192 2.6 7.0 0.00 0.02 0.00 23 1014.4
20260504140903 49 76 0.9 5.2 0.00 0.02 0.00 17 1014.2
20260504140404 49 76 0.9 5.2 0.00 0.02 0.00 17 1014.1
20260504140132 49 190 0.9 5.2 0.00 0.02 0.00 17 1014.1
20260504130325 47 182 0.9 4.3 0.00 0.02 0.00 24 1013.6
20260504120213 47 223 0.0 0.0 0.00 0.02 0.00 57 1013.7
20260504110608 48 94 1.7 6.1 0.00 0.02 0.00 58 1013.6
20260504100521 49 333 1.7 6.1 0.00 0.02 0.00 80 1013.5
20260504081505 51 69 0.0 0.0 0.00 0.02 0.00 71 1013.9
20260504081006 51 69 0.0 0.0 0.00 0.02 0.00 71 1013.7
20260504080504 51 69 0.0 0.9 0.00 0.02 0.00 72 1013.9
20260504080229 51 69 0.0 1.7 0.00 0.02 0.00 73 1013.9
20260504060204 51 96 2.6 7.0 0.00 0.02 0.02 81 1013.9
20260504050436 51 355 2.6 7.0 0.00 0.02 0.02 80 1014.2
20260504045936 51 58 2.6 7.0 0.00 0.02 0.02 80 1014.2
20260504045433 51 75 2.6 10.4 0.00 0.02 0.02 80 1014.1
20260504044933 51 34 3.5 10.4 0.00 0.02 0.02 80 1014.2
20260504044430 51 26 4.3 9.6 0.00 0.02 0.02 80 1014.3
20260504043929 51 9 5.2 9.6 0.00 0.02 0.02 80 1014.5
20260504043429 51 346 4.3 9.6 0.00 0.02 0.02 80 1014.4
20260504042929 51 334 5.2 11.3 0.00 0.02 0.02 80 1014.6
20260504042429 52 338 5.2 16.5 0.00 0.02 0.02 80 1014.8
20260504041923 52 344 5.2 16.5 0.00 0.02 0.02 79 1014.9
20260504041418 52 348 5.2 9.6 0.00 0.02 0.02 79 1014.6
20260504040910 52 46 4.3 9.6 0.00 0.02 0.02 79 1014.5
20260504040404 52 32 3.5 9.6 0.00 0.02 0.02 79 1014.4
20260504035858 52 355 3.5 10.4 0.00 0.02 0.02 79 1014.3
20260504035352 52 5 3.5 10.4 0.00 0.02 0.02 79 1014.1
20260504035116 51 355 3.5 9.6 0.00 0.02 0.02 79 1013.9
20260504034341 51 0 4.3 10.4 0.00 0.02 0.02 80 1014.0
20260504033835 51 309 4.3 13.0 0.00 0.02 0.02 80 1013.6
20260504033328 51 40 4.3 13.0 0.00 0.02 0.02 80 1013.5
20260504032823 51 53 4.3 10.4 0.00 0.02 0.02 80 1013.3
20260504032317 51 19 4.3 10.4 0.00 0.02 0.02 80 1013.2
20260504031811 52 9 4.3 10.4 0.00 0.02 0.02 80 1013.2
20260504031305 52 15 4.3 10.4 0.00 0.02 0.02 81 1013.1
20260504030759 52 5 4.3 7.8 0.00 0.02 0.02 80 1013.2
20260504030252 53 17 3.5 7.8 0.00 0.02 0.02 80 1013.1
20260504025747 53 15 3.5 10.4 0.00 0.02 0.02 80 1013.3
20260504025241 53 40 4.3 10.4 0.00 0.02 0.02 80 1013.1
20260504024958 54 36 4.3 9.6 0.00 0.02 0.02 80 1013.1
20260504024229 55 54 4.3 13.0 0.00 0.02 0.02 79 1013.0
20260504023946 55 5 4.3 13.9 0.00 0.02 0.02 78 1013.0
20260504023217 57 57 4.3 13.9 0.00 0.02 0.02 77 1012.8
20260504022710 58 309 3.5 8.7 0.00 0.02 0.02 74 1012.5
20260504022205 59 355 3.5 7.8 0.00 0.02 0.02 72 1012.3
20260504021658 61 82 2.6 7.0 0.00 0.02 0.02 69 1012.1
20260504021153 62 321 0.9 7.0 0.00 0.02 0.02 65 1012.2
20260504020646 63 119 0.0 0.9 0.00 0.02 0.02 62 1012.2
20260504020402 64 119 0.9 5.2 0.00 0.02 0.02 60 1012.2
20260504015637 64 119 1.7 5.2 0.00 0.02 0.02 58 1012.1
20260504015131 65 119 1.7 4.3 0.00 0.02 0.02 58 1012.1
20260504014623 65 129 1.7 3.5 0.00 0.02 0.02 60 1012.2
20260504014116 65 130 0.9 3.5 0.00 0.02 0.02 58 1012.0
20260504013612 65 38 0.0 0.0 0.00 0.02 0.02 61 1012.1
20260504013106 66 323 0.0 0.0 0.00 0.02 0.02 63 1012.2
20260504012559 66 323 0.0 0.0 0.00 0.02 0.02 64 1012.2
20260504012053 66 323 0.0 0.0 0.00 0.02 0.02 52 1012.3
20260504011547 66 323 0.9 2.6 0.01 0.02 0.02 63 1012.3
20260504011044 65 320 0.9 4.3 0.01 0.02 0.02 60 1012.3
20260504010809 63 347 0.0 4.3 0.02 0.02 0.02 66 1012.2
20260504010044 62 355 0.0 2.6 0.02 0.02 0.02 76 1012.2
20260504005541 61 355 0.9 2.6 0.02 0.02 0.02 76 1012.5
20260504005039 60 258 0.9 2.6 0.02 0.02 0.02 72 1012.6
20260504004800 60 258 1.7 3.5 0.02 0.02 0.02 68 1012.4
20260504004037 60 331 0.9 3.5 0.02 0.02 0.02 68 1012.3
20260504003537 60 348 1.7 4.3 0.02 0.02 0.02 71 1012.4
20260504003035 60 349 2.6 4.3 0.02 0.02 0.02 69 1012.5
20260504002533 59 333 1.7 4.3 0.02 0.02 0.02 67 1012.7
20260504002033 60 319 1.7 5.2 0.02 0.02 0.02 68 1012.8
20260504001533 61 309 1.7 6.1 0.01 0.01 0.01 68 1013.0
20260504001251 63 5 1.7 7.0 0.01 0.01 0.01 63 1013.0
20260504000531 64 131 3.5 10.4 0.00 0.00 0.00 52 1013.0
20260504000030 65 93 3.5 10.4 0.00 0.00 0.00 46 1012.8
20260503235530 66 106 4.3 9.6 0.00 0.00 0.00 45 1012.7
20260503235031 67 117 4.3 9.6 0.00 0.00 0.00 43 1012.7
20260503234529 68 123 4.3 8.7 0.00 0.00 0.00 42 1012.6
20260503234252 69 175 2.6 8.7 0.00 0.00 0.00 39 1012.6
20260503233529 70 122 2.6 8.7 0.00 0.00 0.00 40 1012.4
20260503233029 70 122 4.3 8.7 0.00 0.00 0.00 37 1012.4
20260503232529 71 109 3.5 8.7 0.00 0.00 0.00 37 1012.3
20260503231529 71 26 3.5 8.7 0.00 0.00 0.00 39 1012.2
20260503231029 70 304 3.5 7.8 0.00 0.00 0.00 39 1012.2
20260503230529 69 42 4.3 9.6 0.00 0.00 0.00 38 1012.2
20260503230029 70 123 4.3 9.6 0.00 0.00 0.00 37 1012.3
20260503225529 72 101 2.6 9.6 0.00 0.00 0.00 34 1012.3
20260503224526 72 317 2.6 7.0 0.00 0.00 0.00 33 1012.2
20260503224025 72 344 3.5 7.8 0.00 0.00 0.00 31 1012.3
20260503223525 73 355 3.5 7.8 0.00 0.00 0.00 31 1012.2
20260503223249 73 342 3.5 8.7 0.00 0.00 0.00 33 1012.3
20260503222524 72 319 3.5 9.6 0.00 0.00 0.00 35 1012.2
20260503222025 71 11 3.5 9.6 0.00 0.00 0.00 39 1012.3
20260503221525 70 355 1.7 4.3 0.00 0.00 0.00 39 1012.4